Regional Weather Roundup
Issued by NWS Bismarck, ND

Home | Current Version | Previous Version | Text Only | Print | Product List | Glossary On
Versions: 1 2 3 4 5 6 7 8 9 10 11 12 13 14 15 16 17 18 19 20 21 22 23 24 25 26 27 28 29 30 31 32 33 34 35 36 37 38 39 40 41 42 43 44 45 46 47 48 49 50
000
ASUS43 KBIS 230920
RWRBIS

NWR BROADCAST TEXT
NATIONAL WEATHER SERVICE BISMARCK ND
400 AM CDT SAT AUG 23 2014

NOTE: "FAIR" INDICATES FEW OR NO CLOUDS BELOW 12,000 FEET WITH NO
SIGNIFICANT WEATHER AND/OR OBSTRUCTIONS TO VISIBILITY.


CITY           SKY/WX    TMP DP  RH WIND       PRES   REMARKS
WILLISTON      CLOUDY    60  55  83 NE13      30.10S
MINOT          CLOUDY    58  54  86 N10       30.12F
MINOT AFB      CLOUDY    59  58  97 NE10      30.13S
BISMARCK       CLOUDY    63  60  90 NE17      30.05F
DICKINSON      CLOUDY    62  60  93 E18G26    30.01F FOG
GARRISON         N/A     59  57  93 E12       30.08F
HETTINGER ARPT CLOUDY    65  62  90 E17       30.00F
JAMESTOWN      CLOUDY    62  58  86 NE10      30.06R
BEACH          HVY RAIN  59  59 100 E20G25    30.01F
CARRINGTON     CLOUDY    59  59 100 NE13      30.08F
CROSBY         CLOUDY    55  55 100 E15       30.16F
HARVEY         FAIR      57  57 100 NE10      30.09F
HAZEN          CLOUDY    61  57  88 E13G20    30.07F
LINTON         CLOUDY    64  64 100 E15       30.00F
MANDAN         CLOUDY    63  59  88 E17G24    30.06S
OAKES            N/A     63  63 100 N9        30.03S FOG
RUGBY          CLOUDY    57  57 100 NE15      30.12F
STANLEY        CLOUDY    57  57 100 NE10G18   30.13S
TIOGA          CLOUDY    55  55 100 NE17G23   30.14F
WATFORD CITY   CLOUDY    59  57  94 E14       30.05F
$$

CITY           SKY/WX    TMP DP  RH WIND       PRES   REMARKS
GRAND FORKS    CLOUDY    63  61  93 N13       30.06S
GRAND FORKS AF CLOUDY    61  61 100 N12       30.08S
DEVILS LAKE    CLOUDY    59  52  77 NE14      30.08F
FARGO          CLOUDY    65  63  93 N9        30.02F FOG
CANDO          CLOUDY    57  55  94 NE12      30.13F
CAVALIER       CLOUDY    57  55  94 N9        30.12S
GRAFTON        CLOUDY    57  57 100 N12       30.08F
GWINNER        CLOUDY    64  64 100 N12       30.02F
LANGDON        CLOUDY    55  55 100 NE12      30.13F FOG
ROLLA          CLOUDY    55  55 100 NE9       30.16F FOG
WALHALLA         N/A     57  57 100 N9        30.14R
$$

CITY           SKY/WX    TMP DP  RH WIND       PRES   REMARKS
ABERDEEN       CLOUDY    65  64  97 NE12      29.98F
MOBRIDGE       LGT RAIN  64  63  96 E15G29    29.93S
BUFFALO          N/A     65  62  90 E15       29.90F
GLASGOW        CLOUDY    60  54  80 E17G25    30.05F
SIDNEY         CLOUDY    61  57  88 E16       30.05F
WOLF POINT     RAIN      60  57  89 NE21G28   30.05F FOG
GLENDIVE       CLOUDY    61  61 100 NE15      30.01F
MILES CITY     CLOUDY    63  62  97 NE7       29.95S
BAKER          LGT RAIN  63  62  97 E14       29.98F
$$

CITY           SKY/WX    TMP DP  RH WIND       PRES   REMARKS
BILLINGS       CLOUDY    60  59  96 NE6       29.93F FOG
GREAT FALLS    LGT RAIN  48  48 100 NW15G25   30.10F
REGINA         PTCLDY    54  50  87 NE12G18   30.21S
ESTEVAN        CLOUDY    55  52  88 NE7       30.18S
$$



USA.gov is the U.S. government's official web portal to all federal, state and local government web resources and services.